This is the latest recevied weather packets stored in our database for station/object HB9TJM-8. If no packets are shown the sender has not sent any weather packets the latest 1 day(s).
| Time | Temp. | Humidity | Pressure | Rain* | Wind** | Luminosity | Snow |
|---|---|---|---|---|---|---|---|
| 1778079992 | 8.89° C | 79% | 1010.8 hPa | 0 mm | - | 328 W/m² | - |
| 1778079377 | 8.89° C | 80% | 1010.9 hPa | 0 mm | - | 460 W/m² | - |
| 1778078454 | 8.33° C | 82% | 1010.9 hPa | 0 mm | - | 315 W/m² | - |
| 1778077838 | 8.33° C | 82% | 1010.8 hPa | 0 mm | - | 369 W/m² | - |
| 1778076301 | 7.78° C | 83% | 1010.7 hPa | 0 mm | - | 255 W/m² | - |
| 1778074149 | 7.22° C | 85% | 1010.5 hPa | 0 mm | - | 168 W/m² | - |
| 1778073841 | 7.22° C | 84% | 1011.2 hPa | 0 mm | - | 132 W/m² | - |
| 1778073533 | 7.22° C | 82% | 1010.8 hPa | 0 mm | - | 157 W/m² | - |
| 1778072918 | 7.22° C | 87% | 1010.5 hPa | 0 mm | - | 185 W/m² | - |
| 1778070457 | 7.22° C | 87% | 1010.1 hPa | 0 mm | - | 237 W/m² | - |
| 1778069534 | 6.67° C | 87% | 1010.4 hPa | 0 mm | - | 239 W/m² | - |
| 1778067997 | 6.67° C | 88% | 1010.2 hPa | 0.51 mm | - | 211 W/m² | - |
| 1778067689 | 6.67° C | 90% | 1009.9 hPa | 0.51 mm | - | 255 W/m² | - |
| 1778067381 | 6.67° C | 90% | 1010.6 hPa | 0.51 mm | - | 297 W/m² | - |
| 1778067073 | 6.67° C | 90% | 1010 hPa | 0.76 mm | - | 250 W/m² | - |
| 1778066458 | 6.67° C | 91% | 1010.1 hPa | 1.27 mm | - | 233 W/m² | - |
| 1778065843 | 6.11° C | 89% | 1010 hPa | 1.78 mm | - | 259 W/m² | - |
| 1778064613 | 6.11° C | 89% | 1010.4 hPa | 2.03 mm | - | 171 W/m² | - |
| 1778063998 | 6.11° C | 89% | 1010 hPa | 2.29 mm | - | 166 W/m² | - |
| 1778062768 | 5.56° C | 90% | 1010.2 hPa | 2.29 mm | - | 115 W/m² | - |
| 1778062153 | 6.11° C | 91% | 1010 hPa | 2.79 mm | - | 113 W/m² | - |
| 1778060922 | 6.11° C | 91% | 1009.9 hPa | 3.05 mm | - | 91 W/m² | - |
| 1778059999 | 6.67° C | 92% | 1009.8 hPa | 3.3 mm | - | 83 W/m² | - |
| 1778058768 | 6.67° C | 92% | 1009.2 hPa | 3.05 mm | - | 73 W/m² | - |
| 1778058153 | 7.22° C | 90% | 1009.1 hPa | 2.54 mm | - | 61 W/m² | - |
* Rain latest hour (hover to see other rain measurements)
** Current wind speed in m/s (hover to see current wind gust speed)